Location: Fort Worth, Tx
(32.7431°N, 97.3695°W)
Time: 07:57:00
(UTC-04:00)

Explorer 11/Cluster Stage 4 - Pass Details

Date: 28 January 2023
Orbit: 466 x 1241 km, 28.8° (Epoch: 02 April)

Event Time Altitude Azimuth Distance (km) Brightness Sun altitude
Exits shadow 06:06:28 - 199° (SSW) 3,992 10.0 -29.6°
Reaches altitude 10° 06:10:22 10° 180° (S) 3,192 9.7 -28.8°
Maximum altitude 06:14:33 15° 149° (SSE) 2,825 9.8 -27.9°
Drops below altitude 10° 06:18:41 10° 117° (ESE) 3,152 10.5 -27.0°
Sets 06:22:57 0° 96° (E) 4,033 11.6 -26.1°
